[TLELIST] Archives

 

[list_settings.list_name] Current TLEs

October 28th 2010 PST

HST 1 20580U 90037B 10300.09759300 .00000718 00000-0 41998-4 0 6685 2 20580 028.4686 098.6536 0003467 162.6448 197.4276 15.01074509924596 ISS (ZARYA) 1 25544U 98067A 10300.45845929 .00052798 00000-0 39731-3 0 1607 2 25544 051.6470 273.8303 0007966 123.4592 021.1197 15.71964047684277 CXO 1 25867U 99040B 10301.25000000 .00000427 00000-0 10000-3 0 5298 2 25867 067.8438 046.5228 8352586 275.5056 354.6819 00.37803400 6894 ____________________________________________________________________ These 2-Line ...Continue Reading

[list_settings.list_name] Current TLEs

October 27th 2010 PST

HST 1 20580U 90037B 10298.90080708 .00000718 00000-0 42034-4 0 6671 2 20580 028.4685 106.4677 0003489 151.0890 208.9884 15.01073131924410 ISS (ZARYA) 1 25544U 98067A 10299.37241044 .00021547 00000-0 16439-3 0 1522 2 25544 051.6457 279.3856 0007305 125.0883 349.4292 15.72129918684109 CXO 1 25867U 99040B 10298.62500000 .00000420 00000-0 10000-3 0 5281 2 25867 067.8382 046.6660 8348136 275.5265 357.2379 00.37801677 6884 ____________________________________________________________________ These 2-Line ...Continue Reading

[list_settings.list_name] Current TLEs

October 26th 2010 PST

HST 1 20580U 90037B 10297.83699753 .00000726 00000-0 42645-4 0 6664 2 20580 028.4685 113.4139 0003455 142.3129 217.7756 15.01071974924253 ISS (ZARYA) 1 25544U 98067A 10298.48713891 .00020169 00000-0 15445-3 0 1432 2 25544 051.6463 283.9196 0007670 121.4204 019.4331 15.72085747683968 CXO 1 25867U 99040B 10298.62500000 .00000420 00000-0 10000-3 0 5281 2 25867 067.8382 046.6660 8348136 275.5265 357.2379 00.37801677 6884 ____________________________________________________________________ These 2-Line ...Continue Reading

[list_settings.list_name] Current TLEs

October 25th 2010 PST

HST 1 20580U 90037B 10295.77586374 .00000706 00000-0 41123-4 0 6656 2 20580 028.4690 126.8730 0003449 121.5451 238.5599 15.01069578923942 ISS (ZARYA) 1 25544U 98067A 10297.46952723 .00018819 00000-0 14475-3 0 1372 2 25544 051.6462 289.1296 0007512 117.6180 020.2391 15.72038131683805 CXO 1 25867U 99040B 10296.00000000 .00000467 00000-0 10000-3 0 5276 2 25867 067.8242 046.8157 8347161 275.5340 359.8272 00.37806791 6874 ____________________________________________________________________ These 2-Line ...Continue Reading

[list_settings.list_name] Current TLEs

October 24th 2010 PST

HST 1 20580U 90037B 10295.77586374 .00000706 00000-0 41123-4 0 6656 2 20580 028.4690 126.8730 0003449 121.5451 238.5599 15.01069578923942 ISS (ZARYA) 1 25544U 98067A 10296.51689293 .00017465 00000-0 13492-3 0 1303 2 25544 051.6460 294.0087 0007500 114.7219 028.2855 15.71997501683654 CXO 1 25867U 99040B 10296.00000000 .00000467 00000-0 10000-3 0 5276 2 25867 067.8242 046.8157 8347161 275.5340 359.8272 00.37806791 6874 ____________________________________________________________________ These 2-Line ...Continue Reading

[list_settings.list_name] Current TLEs

October 23rd 2010 PST

HST 1 20580U 90037B 10292.98334943 .00000613 00000-0 34019-4 0 6641 2 20580 028.4689 145.1032 0003368 092.2778 267.8229 15.01065959923523 ISS (ZARYA) 1 25544U 98067A 10295.55427203 .00018882 00000-0 14566-3 0 1258 2 25544 051.6466 298.9366 0007477 110.4630 341.2848 15.71965273683501 CXO 1 25867U 99040B 10296.00000000 .00000467 00000-0 10000-3 0 5276 2 25867 067.8242 046.8157 8347161 275.5340 359.8272 00.37806791 6874 ____________________________________________________________________ These 2-Line ...Continue Reading

[list_settings.list_name] Current TLEs

October 21st 2010 PST

HST 1 20580U 90037B 10292.98334943 .00000613 00000-0 34019-4 0 6641 2 20580 028.4689 145.1032 0003368 092.2778 267.8229 15.01065959923523 ISS (ZARYA) 1 25544U 98067A 10293.33434441 .00016492 00000-0 12674-3 0 1099 2 25544 051.6465 310.2967 0007949 113.7932 006.5909 15.72168493683150 CXO 1 25867U 99040B 10293.37500000 .00000469 00000-0 10000-3 0 5269 2 25867 067.8071 046.9804 8346060 275.5143 002.4906 00.37809971 6869 ____________________________________________________________________ These 2-Line ...Continue Reading

[list_settings.list_name] Current TLEs

October 20th 2010 PST

HST 1 20580U 90037B 10291.98602105 .00000609 00000-0 33743-4 0 6635 2 20580 028.4691 151.6133 0003455 080.2749 279.8231 15.01065025923375 ISS (ZARYA) 1 25544U 98067A 10292.31543691 .00014689 00000-0 11361-3 0 1025 2 25544 051.6461 315.5143 0007883 110.2059 359.5273 15.72127128682995 CXO 1 25867U 99040B 10290.70833333 .00000397 00000-0 10000-3 0 5250 2 25867 067.7919 047.1149 8343409 275.4978 359.5104 00.37807650 6850 ____________________________________________________________________ These 2-Line ...Continue Reading

[list_settings.list_name] Current TLEs

October 19th 2010 PST

HST 1 20580U 90037B 10290.98869196 .00000617 00000-0 34300-4 0 6627 2 20580 028.4686 158.1256 0003331 069.8641 290.2312 15.01064117923226 ISS (ZARYA) 1 25544U 98067A 10291.37495370 .00013507 00000-0 10501-3 0 954 2 25544 051.6469 320.3301 0007842 107.1793 076.1919 15.72093416682843 CXO 1 25867U 99040B 10290.70833333 .00000397 00000-0 10000-3 0 5250 2 25867 067.7919 047.1149 8343409 275.4978 359.5104 00.37807650 6850 ____________________________________________________________________ These 2-Line ...Continue Reading

[list_settings.list_name] Current TLEs

October 18th 2010 PST

HST 1 20580U 90037B 10290.05785115 .00000634 00000-0 35632-4 0 6610 2 20580 028.4689 164.2046 0003272 060.4427 299.6510 15.01063415923084 ISS (ZARYA) 1 25544U 98067A 10290.47982841 .00012062 00000-0 94404-4 0 880 2 25544 051.6469 324.9132 0007881 103.4285 050.5685 15.72062780682704 CXO 1 25867U 99040B 10290.70833333 .00000397 00000-0 10000-3 0 5250 2 25867 067.7919 047.1149 8343409 275.4978 359.5104 00.37807650 6850 ____________________________________________________________________ These 2-Line ...Continue Reading
  • This mailing list is a public mailing list - anyone may join or leave, at any time.
  • This mailing list is announce-only.

International Space Station (ISS) / Hubble Space Telescope (HST) / Chandra X-Ray Observatory Orbital Data via EMAIL

Privacy Policy:

Private list